Terug naar catalogus

STARLINK-5492

ActiefCommunicatieVLEO
NORAD 55331·PAYLOAD·🇺🇸 United States

Gelanceerd Jan 26, 2023 vanaf Cape Canaveral Space Force Station

Loading…

Volgende Passages (komende 24 uur)

TLE

VersSource: CelesTrak SupGP

Epoch: Sep 15, 2026, 02:23 UTC

1 55331C 23013A   26258.09979167  .00027709  00000+0  10038-2 0  2583
2 55331  43.0012 313.8120 0001162 264.3727 333.7608 15.27559383    17

Volg STARLINK-5492 in realtime met AllMySat

Download on the App Store